Wind_Speed
4 4 3 3 3 2 2 2 1 1 1 2 2 3 4 5 5 4 4 5 5 6 6 7 7 6 5 4 4 4 4 5 5 5 6 6 5 6 5 5 5 5 5
5 5 4 4 4 4 3 2 2 2 2 2 2 3 4 4 5 4 5 5 5 6 5 5 5 5 4 4 4 4 5 4 5 5 6 6 7 7 7 6 6 7 7
6 6 5 5 5 4 4 4 4 3 3 2 2 2 4 4 5 5 5 5 5 5 5 5 5 5 4 4 4 4 4 5 4 4 5 6 7 7 7 7 7 7 8
6 6 6 6 6 6 5 5 5 4 4 3 3 3 4 5 5 5 6 6 5 5 5 5 5 5 4 5 5 4 5 5 5 5 5 5 6 7 7 8 8 8 8
7 7 7 7 7 7 6 6 5 5 5 5 4 4 4 4 5 5 6 6 6 5 5 5 5 5 5 6 6 6 6 6 6 7 7 7 8 8 8 8 9 9 10
8 8 8 8 7 7 7 7 6 6 6 5 5 5 5 6 6 6 7 7 6 6 6 6 6 6 6 7 7 7 7 7 7 8 8 9 9 9 9 10 10 10 10
9 8 8 8 8 8 8 8 8 7 7 7 7 7 7 7 7 7 7 8 7 7 7 7 6 7 7 8 8 9 9 9 9 9 9 10 10 10 11 11 11 11 11
9 8 9 8 8 8 8 8 8 8 9 8 8 8 8 8 8 8 8 8 8 8 8 8 8 8 8 9 9 10 10 10 10 11 10 11 11 11 12 12 12 12 12
9 9 8 9 9 8 8 9 8 8 8 9 9 9 9 9 9 9 9 9 9 9 8 8 8 8 8 9 10 11 10 11 11 11 11 11 12 13 13 13 13 14 14
9 9 9 9 8 9 9 9 9 8 8 9 9 9 9 9 9 10 10 10 9 9 9 9 9 9 9 10 10 11 11 12 12 11 11 11 11 12 12 13 14 15 15
9 9 9 9 8 9 9 9 9 9 8 8 9 9 9 10 10 10 10 10 10 9 9 9 9 9 9 10 10 11 11 12 13 12 12 12 12 12 12 13 14 14 15
8 8 8 8 9 8 9 9 9 9 10 9 9 9 9 9 10 10 10 10 10 10 9 9 9 10 10 10 10 10 11 12 13 13 13 13 13 13 14 14 14 15 15
8 8 8 8 9 9 9 10 10 10 10 10 10 10 10 10 10 10 9 9 10 10 10 10 10 11 11 10 10 10 10 11 11 12 12 13 14 14 14 15 15 15 16
8 8 9 9 10 9 10 10 10 10 10 10 10 10 9 9 10 10 10 11 11 11 11 11 11 11 11 10 10 10 10 10 11 11 12 13 13 14 14 15 15 16 16
8 8 9 9 10 10 10 10 10 10 10 10 10 10 9 9 9 9 9 10 11 11 11 11 10 11 11 11 11 10 11 11 11 12 12 13 13 14 15 15 16 16 17
8 9 9 9 9 10 10 10 10 10 10 10 10 10 9 9 8 8 8 9 9 10 10 10 10 10 10 11 11 11 11 11 11 12 13 13 14 14 15 16 16 17 17
8 9 9 9 10 11 11 10 10 10 9 9 10 10 9 8 9 9 9 9 9 9 9 9 10 10 10 10 11 11 12 12 12 13 13 13 14 14 15 15 16 16 17
9 9 9 10 10 11 11 10 10 9 9 10 10 10 9 9 9 9 8 9 9 9 9 9 9 10 10 10 11 11 12 12 12 13 13 13 14 15 15 15 16 16 16
9 9 10 10 10 11 11 11 11 10 10 10 10 11 11 10 9 9 9 9 9 9 10 10 10 10 11 11 11 11 12 12 12 13 13 13 13 14 14 15 15 16 17
9 10 10 10 10 10 10 11 11 11 11 10 11 12 12 11 11 11 11 10 10 10 11 11 11 11 11 12 12 12 12 12 13 13 13 13 13 14 14 14 15 16 16
10 10 10 10 10 10 10 11 11 11 11 11 11 12 12 12 12 11 11 11 11 11 11 12 12 12 12 12 13 13 13 13 14 14 14 14 14 14 14 15 15 15 16
11 11 10 10 10 10 10 11 11 11 12 12 12 12 12 12 12 12 12 11 11 12 12 12 12 13 13 13 13 13 13 14 14 14 14 14 14 14 14 15 14 15 15
11 11 11 11 11 11 11 11 12 12 12 12 12 12 12 12 13 13 13 13 13 13 13 13 13 13 13 14 14 14 14 14 15 14 14 14 14 15 15 15 15 15 15
13 13 13 12 12 12 12 12 13 13 13 13 13 13 13 13 14 14 14 14 14 14 14 14 14 14 14 15 15 15 15 15 15 15 15 15 14 14 14 15 15 15 15
14 14 14 14 14 14 13 13 13 13 13 14 14 14 14 14 14 14 15 15 15 14 14 14 14 14 15 15 15 16 16 16 16 15 15 15 15 15 15 14 15 15 16
15 15 15 15 15 15 15 15 14 14 14 14 14 14 14 14 14 15 15 15 15 15 15 15 15 15 15 16 16 17 17 17 17 16 16 16 16 16 16 16 16 16 17
Wind_Direction
265 268 273 281 288 289 292 301 301 300 291 248 226 218 210 197 200 200 201 207 215 219 227 229 231 227 231 235 233 228 240 226 231 231 226 231 236 240 243 238 238 237 240
266 269 274 273 280 278 276 287 295 295 299 278 259 231 216 210 211 216 215 218 218 222 227 231 232 229 237 236 237 243 252 255 241 238 235 239 241 242 242 241 241 233 237
267 267 269 271 274 272 269 275 283 284 289 288 272 222 216 218 228 230 228 227 227 236 238 235 238 236 240 243 244 251 257 261 265 255 257 254 249 247 242 238 243 242 244
268 267 268 271 273 273 272 273 273 271 277 276 253 235 226 230 241 242 239 239 248 252 249 245 242 240 245 250 258 261 256 261 265 265 267 270 251 244 243 244 252 253 251
267 268 268 269 269 269 266 267 269 264 265 265 258 248 242 243 246 251 249 257 261 257 258 260 248 247 252 254 257 262 262 264 268 265 265 273 267 252 245 248 253 254 253
266 268 269 266 265 264 261 260 264 263 261 257 255 251 251 252 254 260 260 265 269 270 265 264 262 261 260 253 253 258 262 265 270 267 269 270 268 259 254 256 257 259 259
265 265 268 264 263 264 262 261 260 263 258 253 252 251 251 255 258 259 265 268 270 272 273 269 268 265 263 260 260 262 264 267 270 272 272 269 265 263 259 259 261 263 262
262 262 264 265 264 265 263 265 261 262 255 252 256 255 253 256 258 260 264 268 268 269 272 273 273 270 268 269 269 267 266 271 275 274 275 272 265 265 263 263 263 264 263
264 262 261 264 265 266 267 266 263 259 254 253 259 261 260 259 258 259 264 267 271 274 273 273 275 273 272 277 273 269 270 273 276 280 278 277 269 265 263 266 268 269 270
267 267 264 262 261 262 264 265 262 260 259 258 260 260 262 265 265 266 268 269 271 273 274 274 276 275 273 278 276 273 272 271 276 279 280 278 270 269 270 272 273 272 272
267 268 267 265 265 270 270 266 264 263 267 270 268 271 272 273 270 265 268 267 269 269 269 272 273 273 275 281 279 273 271 271 272 275 275 276 272 268 270 272 273 272 271
275 276 276 274 273 278 276 274 273 272 278 279 277 278 279 278 273 268 266 266 271 269 270 272 275 276 279 281 282 278 274 274 274 274 273 273 273 270 270 271 271 272 272
276 278 280 281 279 276 275 274 274 276 279 281 281 279 283 283 277 271 268 269 271 271 271 271 277 280 281 284 286 286 281 276 276 277 276 274 271 270 271 271 272 272 272
279 281 280 279 278 277 275 275 275 275 275 277 281 280 281 284 283 280 275 270 274 276 277 277 280 283 283 284 286 287 286 282 279 279 278 277 274 273 272 273 273 272 272
279 282 284 282 282 282 281 279 276 275 276 279 281 281 284 284 282 282 280 278 279 279 279 282 283 285 286 284 285 286 287 286 282 281 282 281 276 275 275 274 275 275 274
281 282 284 284 285 285 284 281 279 277 279 279 280 281 281 282 282 282 282 280 282 282 283 283 284 287 289 287 286 287 286 285 284 284 286 284 280 276 276 277 277 275 275
286 285 285 284 282 283 283 283 282 282 281 280 280 281 280 281 283 282 281 279 281 283 285 283 285 290 289 286 286 287 288 288 288 288 288 287 285 281 279 278 278 276 274
286 288 289 287 283 281 281 283 280 282 283 282 281 281 283 283 282 284 283 280 280 283 284 283 286 288 287 288 289 289 287 288 288 289 289 287 286 286 285 282 280 278 277
288 291 291 288 285 281 280 281 281 282 284 283 283 282 283 282 281 282 281 280 281 284 283 283 285 285 285 287 289 290 289 290 290 292 291 289 287 286 288 286 285 283 281
288 291 291 291 288 283 280 283 283 281 281 280 281 281 281 281 279 280 279 279 280 282 283 284 286 287 286 287 288 288 289 289 291 293 292 291 290 290 288 287 287 286 285
287 289 288 287 287 285 283 282 281 280 280 280 281 281 280 279 277 276 278 279 280 282 284 285 287 287 287 287 287 288 289 291 291 292 292 291 291 290 288 287 288 289 288
284 286 287 286 285 284 284 282 282 280 279 282 283 284 280 276 276 274 276 278 279 282 284 285 286 287 288 288 288 289 290 290 291 291 291 291 291 289 289 289 288 289 290
280 283 283 283 281 280 283 282 282 280 277 281 282 284 282 280 279 275 275 277 278 280 283 285 285 286 286 287 288 290 290 290 292 292 292 292 291 290 288 288 288 288 288
279 280 281 281 278 277 278 279 279 278 278 279 282 286 285 282 280 277 276 277 277 279 282 284 286 285 286 286 287 290 289 289 291 292 291 290 290 289 289 289 287 287 288
276 277 278 278 277 276 275 277 278 277 277 278 282 284 285 284 282 279 279 280 278 278 281 283 284 285 286 287 288 289 290 289 289 289 290 290 290 289 288 288 288 286 286
274 276 276 275 275 273 272 273 274 275 276 277 281 282 283 286 287 283 281 284 284 283 282 281 283 286 286 287 288 289 290 290 289 288 288 289 290 290 288 286 286 286 286
Height
5863 5862 5863 5863 5863 5862 5862 5862 5861 5860 5860 5860 5860 5860 5861 5862 5863 5864 5865 5865 5866 5867 5867 5868 5868 5869 5869 5870 5870 5870 5869 5869 5870 5870 5871 5872 5873 5873 5874 5874 5875 5875 5876
5862 5862 5862 5862 5862 5862 5862 5862 5861 5861 5860 5859 5858 5858 5860 5861 5863 5864 5864 5865 5866 5866 5867 5867 5868 5868 5869 5869 5869 5869 5869 5869 5870 5870 5871 5871 5872 5873 5873 5874 5874 5874 5875
5861 5861 5862 5862 5862 5862 5861 5861 5861 5861 5860 5859 5858 5857 5859 5861 5862 5863 5864 5865 5865 5866 5866 5867 5867 5868 5868 5868 5868 5869 5869 5868 5869 5869 5870 5870 5871 5872 5872 5873 5873 5874 5874
5860 5861 5861 5861 5861 5861 5861 5861 5860 5860 5860 5859 5858 5858 5859 5861 5862 5863 5863 5864 5864 5865 5866 5866 5866 5867 5867 5868 5868 5868 5868 5869 5869 5869 5869 5869 5870 5870 5871 5872 5872 5873 5873
5859 5860 5859 5860 5860 5860 5860 5860 5860 5860 5860 5859 5859 5859 5860 5861 5862 5862 5863 5863 5864 5864 5865 5865 5866 5866 5866 5867 5867 5867 5867 5868 5868 5868 5868 5869 5869 5869 5870 5871 5871 5871 5872
5859 5859 5858 5858 5859 5859 5859 5859 5859 5859 5859 5859 5859 5860 5860 5861 5861 5862 5862 5862 5863 5864 5864 5864 5865 5865 5865 5866 5866 5866 5866 5867 5867 5867 5867 5868 5868 5868 5869 5869 5869 5870 5870
5857 5857 5857 5857 5858 5858 5858 5858 5858 5858 5858 5858 5859 5859 5859 5860 5860 5861 5861 5861 5862 5862 5863 5863 5863 5864 5864 5864 5864 5865 5865 5865 5865 5866 5866 5866 5866 5867 5867 5868 5868 5868 5868
5856 5856 5856 5856 5856 5856 5856 5857 5857 5857 5857 5857 5858 5858 5858 5859 5859 5859 5860 5860 5860 5861 5861 5861 5862 5862 5862 5862 5863 5863 5863 5864 5864 5864 5864 5864 5864 5865 5865 5866 5866 5866 5867
5854 5855 5855 5855 5855 5855 5855 5855 5855 5855 5856 5856 5856 5857 5857 5857 5858 5858 5858 5859 5859 5859 5860 5860 5860 5860 5860 5861 5861 5861 5862 5862 5862 5862 5862 5862 5862 5863 5863 5864 5864 5864 5865
5853 5853 5854 5854 5854 5854 5854 5854 5854 5854 5855 5855 5855 5855 5856 5856 5856 5857 5857 5857 5857 5858 5858 5858 5858 5858 5858 5859 5859 5859 5860 5860 5860 5860 5860 5860 5860 5861 5861 5861 5862 5862 5862
5851 5852 5852 5852 5853 5853 5852 5852 5853 5853 5853 5853 5854 5854 5854 5855 5855 5855 5855 5855 5855 5856 5856 5856 5856 5856 5857 5857 5857 5857 5857 5858 5858 5858 5858 5858 5858 5858 5858 5859 5859 5859 5860
5850 5850 5851 5851 5851 5851 5851 5851 5851 5851 5852 5852 5852 5852 5852 5853 5853 5853 5853 5853 5853 5854 5854 5854 5854 5855 5855 5855 5855 5855 5855 5856 5856 5856 5856 5856 5856 5856 5856 5856 5857 5857 5857
5849 5849 5849 5849 5849 5850 5850 5850 5850 5850 5850 5850 5851 5851 5851 5851 5851 5851 5851 5851 5852 5852 5852 5852 5852 5853 5853 5853 5853 5853 5853 5853 5853 5853 5853 5853 5853 5853 5854 5854 5854 5854 5854
5847 5847 5847 5847 5848 5848 5848 5848 5848 5849 5849 5849 5849 5849 5849 5849 5849 5849 5849 5849 5850 5850 5850 5850 5850 5851 5851 5851 5851 5851 5851 5851 5851 5851 5851 5851 5850 5851 5851 5851 5851 5850 5851
5846 5846 5846 5846 5846 5846 5846 5846 5847 5847 5847 5847 5847 5847 5847 5848 5848 5848 5848 5848 5848 5848 5848 5849 5849 5849 5849 5849 5849 5849 5849 5849 5849 5848 5848 5848 5848 5848 5848 5848 5848 5847 5847
5845 5845 5844 5844 5844 5844 5844 5844 5845 5845 5845 5845 5845 5846 5846 5846 5846 5846 5846 5846 5846 5846 5846 5846 5847 5847 5847 5847 5847 5847 5847 5846 5846 5846 5846 5845 5845 5845 5845 5844 5844 5844 5844
5843 5843 5843 5843 5842 5842 5842 5842 5843 5843 5843 5844 5844 5844 5844 5844 5844 5844 5844 5844 5844 5845 5845 5845 5845 5845 5845 5845 5844 5844 5844 5844 5844 5844 5843 5843 5842 5842 5841 5841 5841 5841 5840
5841 5841 5841 5841 5840 5840 5840 5840 5840 5841 5841 5842 5842 5842 5842 5842 5842 5842 5842 5842 5843 5843 5843 5843 5843 5843 5842 5842 5842 5842 5841 5841 5841 5841 5840 5840 5840 5839 5838 5838 5838 5837 5837
5839 5839 5839 5838 5838 5838 5838 5839 5839 5839 5840 5840 5840 5840 5840 5840 5840 5840 5841 5841 5841 5841 5841 5841 5841 5841 5840 5840 5840 5839 5839 5839 5838 5838 5837 5837 5837 5836 5836 5835 5835 5834 5834
5837 5837 5837 5836 5836 5836 5836 5837 5837 5837 5838 5838 5838 5838 5838 5838 5839 5839 5839 5839 5839 5839 5839 5839 5839 5838 5838 5838 5838 5837 5837 5836 5836 5835 5834 5834 5833 5833 5832 5832 5832 5831 5831
5835 5835 5835 5834 5834 5834 5834 5835 5835 5835 5835 5836 5836 5836 5836 5836 5836 5836 5836 5836 5836 5836 5836 5836 5836 5836 5836 5835 5835 5835 5834 5833 5833 5832 5831 5831 5830 5830 5829 5829 5828 5828 5828
5833 5833 5832 5832 5832 5832 5832 5833 5833 5833 5833 5833 5834 5833 5833 5833 5834 5834 5834 5834 5834 5834 5834 5834 5834 5833 5833 5832 5832 5832 5831 5831 5830 5829 5828 5828 5827 5827 5826 5826 5825 5825 5824
5830 5830 5830 5830 5830 5830 5830 5830 5831 5831 5831 5831 5831 5831 5831 5831 5831 5831 5831 5831 5831 5831 5831 5831 5831 5830 5830 5830 5829 5829 5828 5828 5827 5826 5825 5825 5824 5824 5823 5823 5822 5822 5821
5827 5827 5827 5827 5827 5827 5828 5828 5828 5828 5828 5828 5828 5828 5828 5828 5828 5828 5828 5828 5828 5828 5828 5828 5828 5827 5827 5826 5826 5825 5825 5824 5824 5823 5822 5821 5821 5820 5820 5819 5819 5818 5818
5824 5824 5824 5824 5824 5824 5825 5825 5825 5825 5825 5826 5825 5825 5825 5825 5825 5825 5825 5825 5825 5825 5825 5825 5824 5824 5823 5823 5822 5822 5821 5820 5819 5819 5818 5818 5817 5817 5816 5816 5815 5815 5815
5821 5821 5821 5821 5821 5821 5821 5821 5822 5822 5822 5822 5822 5822 5822 5822 5821 5821 5821 5821 5821 5821 5821 5821 5821 5820 5820 5819 5818 5818 5817 5816 5815 5815 5814 5814 5813 5813 5812 5812 5811 5811 5811